LFLPLFLB

Guest
Details From LFLP - Annecy Haute-Sovoie Mont Blanc Meythet
To LFLB - Aix-Les-Bains
Flight Number -
Tags generated
Created
Modified
Stats Distance 22 nm / 41 km
Max Altitude 1,900 ft / 579 m
Waypoints 3
Social Downloads 5
Likes 0
Share VATSIM

Download

Looking for another format? Having issues loading an existing format? Contact us
Advertisement - Login to hide

Notes

Basic altitude profile: - Ascent Rate: 2500ft/min - Ascent Speed: 250kts - Cruise Altitude: 35000ft - Cruise Speed: 420kts - Descent Rate: 1500ft/min - Descent Speed: 250kts Options: - Use NATs: yes - Use PACOTS: yes - Use low airways: yes - Use high airways: yes

Route

LFLP OMASI LFLB

ID Type Via Altitude Latitude Longitude Leg Dist Tot Dist Heading (true) Name
O LFLP APT - 0 ft / 0 m 45.92882˚ 6.09960˚ - 0 nm - Annecy Haute-Sovoie Mont Blanc Meythet
OMASI FIX - 1,900 ft / 579 m 45.90611˚ 5.97417˚ 5 nm 5 nm 255° / 255° -
O LFLB APT - 0 ft / 0 m 45.63623˚ 5.88090˚ 16 nm 22 nm 194° / 194° Aix-Les-Bains

Altitude Profile

Advertisement - Login to hide

LFLP

Details ICAO LFLP (NCY)
Name Annecy Haute-Sovoie Mont Blanc Meythet
Region France
Timezone Europe/Paris (UTC+1.0)
Stats Elevation 1,520 ft / 463 m (AMSL)
Location 45.928820° 6.099601°
Runways 2
Magnetic Variation 1.741° E

METAR

LFLP 160200Z AUTO VRB02KT 6000 -RA OVC010 00/00 Q1005

Decode

TAF

TAF AMD LFLP 152002Z 1520/1615 CNL

Decode

Departure Runways

ID Width Length Bearing (true) Bearing (mag) Surface Threshold Offset Overrun Length
04 98 ft / 30 m 5,290 ft / 1,612 m 38.51° 36.77° Asphalt 820 ft / 250 m 0 ft / 0 m
22 98 ft / 30 m 5,290 ft / 1,612 m 218.52° 216.78° Asphalt 755 ft / 230 m 0 ft / 0 m
22C 230 ft / 70 m 2,783 ft / 848 m 218.40° 216.66° Grass 0 ft / 0 m 0 ft / 0 m
4C 230 ft / 70 m 2,783 ft / 848 m 38.40° 36.66° Grass 0 ft / 0 m 0 ft / 0 m

LFLB

Details ICAO LFLB (CMF)
Name Aix-Les-Bains
Region France
Timezone Europe/Paris (UTC+1.0)
Stats Elevation 779 ft / 237 m (AMSL)
Location 45.636234° 5.880898°
Runways 2
Magnetic Variation 1.690° E

METAR

LFLB 160200Z AUTO 14008KT 110V190 9000 RA FEW015 BKN026 BKN032 03/01 Q1006

Decode

TAF

TAF LFLB 152201Z 1522/1618 CNL

Decode

Destination Runways

ID Width Length Bearing (true) Bearing (mag) Surface Threshold Offset Overrun Length
18 148 ft / 45 m 5,452 ft / 1,662 m 176.72° 175.03° Asphalt 26 ft / 8 m 774 ft / 236 m
18L 197 ft / 60 m 2,309 ft / 704 m 176.70° 175.01° Grass 0 ft / 0 m 0 ft / 0 m
36 148 ft / 45 m 5,452 ft / 1,662 m 356.72° 355.03° Asphalt 23 ft / 7 m 456 ft / 139 m
36R 197 ft / 60 m 2,309 ft / 704 m 356.70° 355.01° Grass 315 ft / 96 m 0 ft / 0 m

Approach Navaids

Runway Type Ident Frequency Range Bearing (true) Bearing (mag) Slope Elevation
18 Localiser CY 109.50 MHz 27 nm / 50 km 176.73° 175.04° - 779 ft / 237 m (AMSL)
18 Glidescope CY 109.50 MHz 27 nm / 50 km 176.73° 175.04° 4.46° 779 ft / 237 m (AMSL)
18 DME CY 109.50 MHz 27 nm / 50 km - - - 779 ft / 237 m (AMSL)

Popular Alternatives